Location: B�hl
(48.6968°N, 8.1352°E)
Time: 10:47:59
(UTC+00:00)

Gbstr 26 Del rocket - Pass Details

Date: 08 March 2021
Orbit: 492 x 1264 km, 51.8° (Epoch: 10 April)

Event Time Altitude Azimuth Distance (km) Brightness Sun altitude
Rises 19:30:18 0° 292° (WNW) 2,895 8.0 -21.7°
Reaches altitude 10° 19:32:24 10° 290° (WNW) 2,077 6.9 -22.0°
Maximum altitude 19:37:10 77° 206° (SSW) 787 3.5 -22.7°
Enters shadow 19:38:24 54° 135° (SE) 958 3.6 -22.9°
